This is the latest recevied weather packets stored in our database for station/object N1HQ. If no packets are shown the sender has not sent any weather packets the latest 1 day(s).
| Time | Temp. | Humidity | Pressure | Rain* | Wind** | Luminosity | Snow |
|---|---|---|---|---|---|---|---|
| 1778019143 | 26.11° C | 69% | 1012.4 hPa | 0 mm | 2.24 m/s, 153° | - | - |
| 1778018888 | 26.11° C | 71% | 1012.4 hPa | 0 mm | 1.79 m/s, 240° | - | - |
| 1778018588 | 26.11° C | 69% | 1012.4 hPa | 0 mm | 1.79 m/s, 159° | - | - |
| 1778018333 | 26.11° C | 69% | 1012.4 hPa | 0 mm | 1.79 m/s, 163° | - | - |
| 1778018070 | 26.67° C | 69% | 1012.3 hPa | 0 mm | 2.24 m/s, 157° | - | - |
| 1778017813 | 26.11° C | 68% | 1012.3 hPa | 0 mm | 2.24 m/s, 141° | - | - |
| 1778017555 | 26.11° C | 68% | 1012.4 hPa | 0 mm | 2.24 m/s, 124° | - | - |
| 1778017313 | 26.11° C | 67% | 1012.3 hPa | 0 mm | 1.79 m/s, 153° | - | - |
| 1778017048 | 26.11° C | 68% | 1012.3 hPa | 0 mm | 1.79 m/s, 148° | - | - |
| 1778016802 | 26.11° C | 70% | 1012.3 hPa | 0 mm | 2.24 m/s, 148° | - | - |
| 1778016513 | 26.11° C | 71% | 1012.4 hPa | 0 mm | 2.24 m/s, 233° | - | - |
| 1778016235 | 26.11° C | 69% | 1012.6 hPa | 0 mm | 2.24 m/s, 178° | - | - |
| 1778015963 | 26.67° C | 68% | 1012.6 hPa | 0 mm | 1.79 m/s, 184° | - | - |
| 1778015678 | 26.67° C | 68% | 1012.5 hPa | 0 mm | 1.79 m/s, 162° | - | - |
| 1778015393 | 26.67° C | 70% | 1012.6 hPa | 0 mm | 2.24 m/s, 130° | - | - |
| 1778015153 | 26.67° C | 67% | 1012.7 hPa | 0 mm | 1.79 m/s, 149° | - | - |
| 1778014898 | 26.67° C | 68% | 1012.5 hPa | 0 mm | 1.79 m/s, 144° | - | - |
| 1778014658 | 27.22° C | 67% | 1012.6 hPa | 0 mm | 1.79 m/s, 232° | - | - |
| 1778014402 | 26.67° C | 67% | 1012.4 hPa | 0 mm | 1.79 m/s, 194° | - | - |
| 1778014143 | 26.67° C | 68% | 1012.5 hPa | 0 mm | 1.79 m/s, 144° | - | - |
| 1778013898 | 26.67° C | 66% | 1012.6 hPa | 0 mm | 1.79 m/s, 89° | - | - |
| 1778013603 | 26.67° C | 67% | 1012.6 hPa | 0 mm | 2.24 m/s, 184° | - | - |
| 1778013325 | 26.67° C | 66% | 1012.7 hPa | 0 mm | 2.24 m/s, 131° | - | - |
| 1778013043 | 27.22° C | 64% | 1012.7 hPa | 0 mm | 1.79 m/s, 157° | - | - |
| 1778012758 | 27.22° C | 65% | 1012.8 hPa | 0 mm | 2.24 m/s, 159° | - | - |
* Rain latest hour (hover to see other rain measurements)
** Current wind speed in m/s (hover to see current wind gust speed)